SCP
0 0 0 0 0 0 0 0 0 0 0 0 0 0 0 0 0 0 0 0 0 0 0 0 0 0 0 0 0 0 0 0 0 0 0 0 0 0 0 0 0 0 0
0 0 0 0 0 0 0 0 0 0 0 0 0 0 0 0 0 0 0 0 0 0 0 0 0 0 0 0 0 0 0 0 0 0 0 0 0 0 0 0 0 0 0
0 0 0 0 0 0 0 0 0 0 0 0 0 0 0 0 0 0 0 0 0 0 0 0 0 0 0 0 0 0 0 0 0 0 0 0 0 0 0 0 0 0 0
0 0 0 0 0 0 0 0 0 0 0 0 0 0 0 0 0 0 0 0 0 0 0 0 0 0 0 0 0 0 0 0 0 0 0 0 0 0 0 0 0 0 0
0 0 0 0 0 0 0 0 0 0 0 0 0 0 0 0 0 0 0 0 0 0 0 0 0 0 0 0 0 0 0 0 0 0 0 0 0 0 0 0 0 0 0
0 0 0 0 0 0 0 0 0 0 0 0 0 0 0 0 0 0 0 0 0 0 0 0 0 0 0 0 0 0 0 0 0 0 0 0 0 0 0 0 0 0 0
0 0 0 0 0 0 0 0 0 0 0 0 0 0 0 0 0 0 0 0 0 0 0 0 0 0 0 0 0 0 0 0 0 0 0 0 0 0 0 0 0 0 0
0 0 0 0 0 0 0 0 0 0 0 0 0 0 0 0 0 0 0 0 0 0 0 0 0 0 0 0 0 0 0 0 0 0 0 0 0 0 0 0 0 0 0
0 0 0 0 0 0 0 0 0 0 0 0 0 0 0 0 0 0 0 0 0 0 0 0 0 0 0 0 0 0 -0 -0 0 0 -0 -0 -0 -0 0 0 0 0 0
0 0 0 0 0 0 0 0 0 0 0 0 0 0 0 0 0 0 0 0 0 0 0 0 0 0 0 0 0 0 -0 -0 -0 0 0 0 0 0 0 0 0 0 0
0 0 0 0 0 0 0 0 0 0 0 0 0 0 0 0 0 0 0 0 0 0 0 0 0 0 0 0 0 0 -0 -0 -0 -0 0 0 0 0 0 0 0 0 0
0 0 0 0 0 0 0 0 0 0 0 0 0 0 0 0 0 0 0 0 0 0 0 0 0 -0 0 0 0 0 0 0 0 0 0 0 0 0 0 0 0 0 0
0 0 0 0 0 0 0 0 0 0 0 0 0 0 0 0 0 0 0 0 0 0 0 0 -0 0 0 0 0 0 0 0 0 0 0 0 0 0 0 0 0 0 0
0 0 0 0 0 0 0 0 0 0 0 0 0 0 0 0 0 0 0 0 0 0 0 0 0 0 0 -0 0 0 0 0 0 0 0 0 0 0 0 0 0 0 0
0 0 0 0 0 0 0 0 0 0 0 0 0 0 0 0 0 0 -0 -0 0 0 -0 0 0 0 0 0 0 0 0 0 0 0 0 0 0 0 -0 -0 0 0 0
0 0 0 0 0 0 0 0 0 0 0 0 0 0 0 0 0 0 -0 -0 -0 0 0 0 0 0 0 0 0 0 0 0 0 0 0 0 0 -0 -0 -0 0 -0 -0
0 0 0 0 0 0 0 0 0 0 0 0 0 0 0 0 0 0 -0 0 0 0 0 0 0 0 0 0 0 0 0 0 0 0 0 0 -0 0 0 -0 0 -0 -0
0 0 0 0 0 0 0 0 0 0 0 0 0 0 0 0 0 0 0 0 0 0 0 0 0 0 0 0 0 0 0 0 0 0 0 0 0 -0 0 -0 0 -0 -0
0 0 0 0 0 0 0 0 0 0 0 0 0 0 0 0 0 0 0 0 0 0 0 0 0 0 0 0 0 0 0 0 0 0 0 0 0 0 0 0 0 -0 -0
0 0 0 0 0 0 0 0 0 0 0 0 0 0 0 0 0 0 0 0 0 0 0 0 0 0 0 0 0 0 0 0 0 0 0 0 0 0 0 0 0 0 0
0 0 0 0 0 0 0 0 0 0 0 0 0 0 0 0 0 0 0 0 0 0 0 0 0 0 0 0 0 0 0 0 0 0 0 0 0 0 -0 0 0 0 0
0 0 0 0 0 0 0 0 0 0 0 0 0 0 0 0 0 0 0 0 0 0 0 0 0 0 0 0 0 0 0 0 0 0 0 0 0 -0 -0 -0 -0 0 0
0 0 0 0 0 0 0 0 0 0 0 0 0 0 0 0 0 0 0 0 0 0 0 0 0 0 0 0 0 0 0 0 0 0 0 -0 -0 -0 -0 -0 -0 0 0
0 0 0 0 0 0 0 0 0 0 0 0 0 0 0 0 0 0 0 0 0 0 0 0 0 0 0 0 0 0 0 0 0 0 -0 -0 -0 -0 -0 -0 -0 0 0
0 0 0 0 0 0 0 0 0 0 0 0 0 0 0 0 0 0 0 0 0 0 0 0 0 0 0 -0 -0 -0 -0 -0 -0 -0 0 -0 -0 -0 -0 0 0 0 0
0 0 0 0 0 0 0 0 0 0 0 0 0 0 0 0 0 0 0 0 0 0 0 0 0 -0 -0 -0 -0 -0 -0 -0 -0 -0 -0 0 0 0 0 0 0 0 0
Wind_Speed_500mb
36 39 41 42 43 46 50 53 56 60 64 68 69 71 71 69 68 70 73 78 82 86 86 85 84 79 77 74 75 73 73 70 79 98 84 73 71 82 84 81 80 74 76
37 42 48 51 51 53 55 57 58 61 65 70 70 72 72 70 70 72 77 82 86 91 92 90 91 84 80 76 80 85 77 73 73 90 92 83 76 77 78 83 82 80 75
41 44 48 51 54 57 58 58 60 61 67 71 72 74 73 71 72 75 79 86 91 96 98 96 95 87 83 77 69 73 73 71 72 81 96 86 79 77 83 78 78 81 78
43 46 50 51 53 56 57 60 59 61 67 71 74 75 74 73 75 78 85 90 97 104 104 99 92 80 75 75 72 78 80 78 79 79 89 85 80 85 71 78 82 78 82
51 53 55 54 57 58 60 61 61 64 69 72 76 75 75 75 77 82 86 95 101 107 103 84 79 78 70 69 71 77 73 77 80 79 92 88 82 72 68 73 81 92 93
53 56 56 58 62 62 62 62 63 65 71 74 75 75 77 79 82 86 90 96 100 96 88 79 74 70 66 62 62 64 65 68 78 76 86 97 103 77 74 81 81 81 95
56 59 61 63 68 65 65 65 64 69 73 74 73 74 81 86 89 93 93 89 87 79 75 72 68 64 64 66 69 68 71 72 66 72 87 98 100 85 81 82 84 87 92
62 62 64 67 67 65 66 63 64 68 69 70 73 78 85 91 92 90 83 79 76 71 67 66 64 67 67 67 72 75 75 78 82 81 83 96 98 92 85 90 99 98 101
65 62 63 66 67 67 64 63 66 68 68 70 76 83 90 96 85 78 72 71 69 68 68 67 69 73 71 60 67 79 85 89 86 77 77 84 90 93 91 90 97 86 97
60 60 64 65 65 63 62 64 66 64 66 71 77 83 90 92 77 72 60 63 73 74 74 71 69 67 62 65 71 78 89 93 95 91 90 92 90 89 79 76 83 92 93
61 63 65 64 63 62 63 64 64 63 66 72 81 88 88 83 78 67 53 59 66 74 75 79 76 69 73 70 72 79 85 84 86 89 89 87 83 80 82 80 73 81 92
61 64 65 63 61 61 62 62 60 61 68 76 84 89 86 81 72 64 56 55 59 68 76 80 83 74 76 76 76 75 72 72 78 76 76 77 75 83 80 71 79 82 90
62 62 62 61 60 60 61 59 59 62 69 77 81 85 87 81 75 66 64 64 61 65 73 74 73 73 75 75 70 68 68 68 69 72 75 78 76 78 73 64 75 73 66
59 59 59 60 59 59 58 55 58 62 68 71 74 79 83 82 75 71 72 75 73 77 80 84 87 79 70 70 66 63 65 66 65 68 72 72 74 73 62 57 72 67 65
57 56 55 55 56 56 55 55 59 63 63 63 65 69 74 76 69 61 65 71 73 73 79 84 76 75 74 73 72 71 68 68 68 67 71 71 72 67 58 58 71 65 62
51 50 50 51 51 52 55 60 60 64 62 53 55 53 58 55 58 59 60 64 63 67 69 72 73 71 73 76 78 79 75 73 70 70 70 68 70 65 57 53 70 62 56
46 47 48 49 50 52 56 64 74 73 65 55 49 56 54 54 53 56 58 55 60 64 64 66 68 69 73 76 78 78 79 74 71 71 70 68 66 61 55 53 71 59 51
44 46 46 46 48 54 60 64 68 72 76 71 50 50 56 59 60 58 47 54 60 61 65 66 68 68 70 75 78 78 77 76 74 72 70 67 65 61 56 49 65 57 47
43 44 44 47 51 57 61 63 64 65 64 66 65 52 52 55 58 50 50 52 60 65 67 69 68 69 70 72 76 76 76 77 76 74 71 68 65 60 56 46 62 55 43
40 42 45 49 54 58 59 60 59 59 60 60 60 59 57 57 55 56 56 56 60 65 65 69 70 68 68 71 75 76 79 77 77 73 71 69 67 62 58 48 56 53 43
41 45 50 53 56 55 55 55 55 55 56 56 55 52 51 52 54 54 55 56 60 65 65 68 70 69 66 69 72 76 78 77 75 76 75 72 71 69 59 48 44 48 40
44 47 48 50 52 51 50 50 50 50 50 52 52 50 49 49 50 50 53 55 59 64 63 66 70 69 66 67 72 76 77 76 76 78 79 77 77 73 64 51 40 47 39
43 45 46 46 46 46 46 46 48 46 47 47 49 50 50 52 51 51 55 56 60 67 66 63 69 71 63 64 66 71 77 79 79 78 82 83 80 74 65 51 37 44 38
39 40 40 40 41 43 45 45 44 44 45 46 47 49 50 51 52 51 55 57 61 69 66 64 70 71 63 64 68 69 71 72 76 84 80 78 73 66 60 45 33 39 33
35 35 36 38 39 40 41 43 43 43 44 45 48 50 51 51 50 52 56 58 62 71 70 67 72 67 63 65 68 71 73 76 77 70 70 68 66 60 52 38 30 35 27
32 34 36 37 38 39 41 43 43 43 44 46 47 49 51 52 50 52 58 59 66 73 70 69 74 65 64 68 75 80 81 77 75 71 63 62 58 53 39 29 24 26 21
Wind_Direction_500mb
303 306 309 312 314 316 317 319 320 322 325 326 326 326 326 325 325 323 323 325 324 322 321 317 311 308 303 300 298 294 291 290 290 293 294 298 298 302 306 307 308 307 303
309 304 302 302 305 307 312 315 314 315 320 321 322 322 322 322 320 319 320 321 321 319 318 315 310 305 300 295 292 293 292 289 289 291 291 296 297 300 301 303 307 308 308
303 303 305 307 301 302 307 310 308 310 314 318 318 318 319 319 317 317 318 317 317 316 314 311 308 303 298 299 297 294 296 294 289 289 293 297 299 300 300 300 301 304 307
298 300 302 308 304 301 303 306 304 306 311 314 314 315 316 316 316 317 317 315 314 312 310 308 306 301 295 294 293 288 290 293 296 296 297 296 296 297 298 300 301 300 303
301 301 305 306 305 301 302 304 303 305 308 311 311 313 313 314 315 317 316 313 311 309 307 302 299 300 293 289 288 289 293 293 293 293 295 296 293 295 295 296 295 300 299
300 303 304 303 303 299 299 299 300 302 306 308 311 312 313 314 315 317 315 312 309 305 304 302 300 302 300 296 290 286 286 287 290 292 288 288 291 292 293 292 295 294 295
299 302 300 300 300 296 295 296 298 301 304 307 310 312 314 315 318 320 317 310 308 306 305 304 307 304 301 301 300 295 290 290 284 285 285 285 287 290 293 290 287 287 286
296 299 299 297 295 293 293 293 295 300 304 308 312 315 315 317 322 321 316 310 310 311 311 309 307 306 302 300 300 299 298 295 292 292 288 287 286 289 287 288 289 289 288
297 299 297 294 294 293 291 292 298 302 306 310 314 316 317 318 325 322 317 314 314 315 315 310 304 302 302 306 302 297 296 295 298 296 290 287 286 285 284 284 281 278 278
297 295 294 294 294 291 291 296 300 302 306 310 314 316 315 318 327 324 319 318 314 313 312 311 307 305 305 304 303 302 302 302 303 304 301 298 296 296 296 286 282 274 272
293 294 295 296 293 290 292 296 299 303 307 312 314 317 319 323 328 324 319 316 314 312 311 311 311 306 307 307 305 300 298 302 300 296 298 301 301 301 302 299 293 284 278
296 297 295 293 290 290 293 298 300 305 310 314 317 318 319 323 326 325 320 315 315 312 312 311 308 313 308 307 304 303 304 303 299 304 305 301 295 300 303 294 296 291 291
297 295 292 291 290 290 295 298 301 308 313 316 318 316 318 323 325 324 322 320 318 315 311 312 310 309 308 308 315 313 311 312 313 312 309 306 305 306 304 299 295 298 288
295 293 291 289 288 293 295 296 301 308 314 317 316 316 318 321 323 324 327 325 321 322 326 319 310 311 317 316 318 318 321 320 319 317 314 310 310 311 306 306 312 312 303
293 291 288 287 290 293 292 299 305 312 316 318 315 312 312 313 320 318 316 317 319 320 314 310 319 323 326 328 328 328 327 326 326 324 322 319 317 316 309 312 317 315 303
291 288 287 290 292 291 296 301 306 311 313 316 309 307 307 306 311 315 314 317 319 318 316 321 324 329 331 333 332 331 330 330 330 328 326 325 323 320 316 315 319 316 305
288 289 291 292 292 298 304 308 311 313 315 317 315 312 313 313 314 316 320 320 315 323 325 324 327 331 331 333 333 331 330 331 331 330 330 328 327 323 320 315 319 318 308
292 293 293 293 297 303 308 311 313 314 316 320 324 318 317 317 317 322 324 324 324 328 334 332 332 331 331 332 333 332 331 332 333 332 331 332 331 328 322 314 322 318 308
292 292 295 299 306 310 312 313 313 314 316 319 322 322 318 319 320 327 332 330 333 335 336 334 335 332 331 332 333 333 332 333 334 334 333 333 333 330 324 320 321 318 304
295 296 300 306 310 313 314 314 315 316 318 321 323 326 327 324 328 329 332 334 337 338 337 335 335 332 331 332 334 333 332 333 334 334 334 335 335 331 326 320 320 315 305
303 307 311 314 316 317 318 318 319 321 321 321 323 326 331 325 328 326 329 333 337 339 336 335 336 334 332 332 333 333 332 333 334 333 332 331 332 330 327 319 319 314 302
312 314 316 318 319 321 322 323 323 323 323 323 325 326 327 327 329 330 331 333 336 339 337 334 336 336 333 333 333 333 332 332 334 333 330 329 328 327 326 319 312 307 302
318 318 321 323 324 326 326 326 327 327 325 325 326 327 329 331 333 334 334 334 336 338 339 336 335 336 334 333 333 334 333 334 333 331 328 326 322 320 320 314 302 294 298
321 322 326 329 330 330 329 330 330 329 327 327 327 327 330 332 333 335 336 336 337 339 340 338 338 336 333 335 336 337 335 333 332 330 324 317 314 314 315 306 294 292 292
326 330 334 334 334 332 330 331 333 332 331 329 328 329 331 333 334 336 338 338 338 340 341 341 339 337 336 338 339 341 340 337 332 325 320 315 307 305 305 292 277 285 281
334 336 336 336 334 334 334 333 334 334 333 332 332 333 334 335 334 337 341 340 340 341 341 341 341 339 338 341 344 345 343 339 334 327 318 309 301 297 293 273 274 278 256
Wind_Speed_850mb
36 39 41 42 43 46 50 53 56 60 64 68 69 71 71 69 68 70 73 78 82 86 86 85 84 79 77 74 75 73 73 70 79 98 84 73 71 82 84 81 80 74 76
37 42 48 51 51 53 55 57 58 61 65 70 70 72 72 70 70 72 77 82 86 91 92 90 91 84 80 76 80 85 77 73 73 90 92 83 76 77 78 83 82 80 75
41 44 48 51 54 57 58 58 60 61 67 71 72 74 73 71 72 75 79 86 91 96 98 96 95 87 83 77 69 73 73 71 72 81 96 86 79 77 83 78 78 81 78
43 46 50 51 53 56 57 60 59 61 67 71 74 75 74 73 75 78 85 90 97 104 104 99 92 80 75 75 72 78 80 78 79 79 89 85 80 85 71 78 82 78 82
51 53 55 54 57 58 60 61 61 64 69 72 76 75 75 75 77 82 86 95 101 107 103 84 79 78 70 69 71 77 73 77 80 79 92 88 82 72 68 73 81 92 93
53 56 56 58 62 62 62 62 63 65 71 74 75 75 77 79 82 86 90 96 100 96 88 79 74 70 66 62 62 64 65 68 78 76 86 97 103 77 74 81 81 81 95
56 59 61 63 68 65 65 65 64 69 73 74 73 74 81 86 89 93 93 89 87 79 75 72 68 64 64 66 69 68 71 72 66 72 87 98 100 85 81 82 84 87 92
62 62 64 67 67 65 66 63 64 68 69 70 73 78 85 91 92 90 83 79 76 71 67 66 64 67 67 67 72 75 75 78 82 81 83 96 98 92 85 90 99 98 101
65 62 63 66 67 67 64 63 66 68 68 70 76 83 90 96 85 78 72 71 69 68 68 67 69 73 71 60 67 79 85 89 86 77 77 84 90 93 91 90 97 86 97
60 60 64 65 65 63 62 64 66 64 66 71 77 83 90 92 77 72 60 63 73 74 74 71 69 67 62 65 71 78 89 93 95 91 90 92 90 89 79 76 83 92 93
61 63 65 64 63 62 63 64 64 63 66 72 81 88 88 83 78 67 53 59 66 74 75 79 76 69 73 70 72 79 85 84 86 89 89 87 83 80 82 80 73 81 92
61 64 65 63 61 61 62 62 60 61 68 76 84 89 86 81 72 64 56 55 59 68 76 80 83 74 76 76 76 75 72 72 78 76 76 77 75 83 80 71 79 82 90
62 62 62 61 60 60 61 59 59 62 69 77 81 85 87 81 75 66 64 64 61 65 73 74 73 73 75 75 70 68 68 68 69 72 75 78 76 78 73 64 75 73 66
59 59 59 60 59 59 58 55 58 62 68 71 74 79 83 82 75 71 72 75 73 77 80 84 87 79 70 70 66 63 65 66 65 68 72 72 74 73 62 57 72 67 65
57 56 55 55 56 56 55 55 59 63 63 63 65 69 74 76 69 61 65 71 73 73 79 84 76 75 74 73 72 71 68 68 68 67 71 71 72 67 58 58 71 65 62
51 50 50 51 51 52 55 60 60 64 62 53 55 53 58 55 58 59 60 64 63 67 69 72 73 71 73 76 78 79 75 73 70 70 70 68 70 65 57 53 70 62 56
46 47 48 49 50 52 56 64 74 73 65 55 49 56 54 54 53 56 58 55 60 64 64 66 68 69 73 76 78 78 79 74 71 71 70 68 66 61 55 53 71 59 51
44 46 46 46 48 54 60 64 68 72 76 71 50 50 56 59 60 58 47 54 60 61 65 66 68 68 70 75 78 78 77 76 74 72 70 67 65 61 56 49 65 57 47
43 44 44 47 51 57 61 63 64 65 64 66 65 52 52 55 58 50 50 52 60 65 67 69 68 69 70 72 76 76 76 77 76 74 71 68 65 60 56 46 62 55 43
40 42 45 49 54 58 59 60 59 59 60 60 60 59 57 57 55 56 56 56 60 65 65 69 70 68 68 71 75 76 79 77 77 73 71 69 67 62 58 48 56 53 43
41 45 50 53 56 55 55 55 55 55 56 56 55 52 51 52 54 54 55 56 60 65 65 68 70 69 66 69 72 76 78 77 75 76 75 72 71 69 59 48 44 48 40
44 47 48 50 52 51 50 50 50 50 50 52 52 50 49 49 50 50 53 55 59 64 63 66 70 69 66 67 72 76 77 76 76 78 79 77 77 73 64 51 40 47 39
43 45 46 46 46 46 46 46 48 46 47 47 49 50 50 52 51 51 55 56 60 67 66 63 69 71 63 64 66 71 77 79 79 78 82 83 80 74 65 51 37 44 38
39 40 40 40 41 43 45 45 44 44 45 46 47 49 50 51 52 51 55 57 61 69 66 64 70 71 63 64 68 69 71 72 76 84 80 78 73 66 60 45 33 39 33
35 35 36 38 39 40 41 43 43 43 44 45 48 50 51 51 50 52 56 58 62 71 70 67 72 67 63 65 68 71 73 76 77 70 70 68 66 60 52 38 30 35 27
32 34 36 37 38 39 41 43 43 43 44 46 47 49 51 52 50 52 58 59 66 73 70 69 74 65 64 68 75 80 81 77 75 71 63 62 58 53 39 29 24 26 21
Wind_Direction_850mb
303 306 309 312 314 316 317 319 320 322 325 326 326 326 326 325 325 323 323 325 324 322 321 317 311 308 303 300 298 294 291 290 290 293 294 298 298 302 306 307 308 307 303
309 304 302 302 305 307 312 315 314 315 320 321 322 322 322 322 320 319 320 321 321 319 318 315 310 305 300 295 292 293 292 289 289 291 291 296 297 300 301 303 307 308 308
303 303 305 307 301 302 307 310 308 310 314 318 318 318 319 319 317 317 318 317 317 316 314 311 308 303 298 299 297 294 296 294 289 289 293 297 299 300 300 300 301 304 307
298 300 302 308 304 301 303 306 304 306 311 314 314 315 316 316 316 317 317 315 314 312 310 308 306 301 295 294 293 288 290 293 296 296 297 296 296 297 298 300 301 300 303
301 301 305 306 305 301 302 304 303 305 308 311 311 313 313 314 315 317 316 313 311 309 307 302 299 300 293 289 288 289 293 293 293 293 295 296 293 295 295 296 295 300 299
300 303 304 303 303 299 299 299 300 302 306 308 311 312 313 314 315 317 315 312 309 305 304 302 300 302 300 296 290 286 286 287 290 292 288 288 291 292 293 292 295 294 295
299 302 300 300 300 296 295 296 298 301 304 307 310 312 314 315 318 320 317 310 308 306 305 304 307 304 301 301 300 295 290 290 284 285 285 285 287 290 293 290 287 287 286
296 299 299 297 295 293 293 293 295 300 304 308 312 315 315 317 322 321 316 310 310 311 311 309 307 306 302 300 300 299 298 295 292 292 288 287 286 289 287 288 289 289 288
297 299 297 294 294 293 291 292 298 302 306 310 314 316 317 318 325 322 317 314 314 315 315 310 304 302 302 306 302 297 296 295 298 296 290 287 286 285 284 284 281 278 278
297 295 294 294 294 291 291 296 300 302 306 310 314 316 315 318 327 324 319 318 314 313 312 311 307 305 305 304 303 302 302 302 303 304 301 298 296 296 296 286 282 274 272
293 294 295 296 293 290 292 296 299 303 307 312 314 317 319 323 328 324 319 316 314 312 311 311 311 306 307 307 305 300 298 302 300 296 298 301 301 301 302 299 293 284 278
296 297 295 293 290 290 293 298 300 305 310 314 317 318 319 323 326 325 320 315 315 312 312 311 308 313 308 307 304 303 304 303 299 304 305 301 295 300 303 294 296 291 291
297 295 292 291 290 290 295 298 301 308 313 316 318 316 318 323 325 324 322 320 318 315 311 312 310 309 308 308 315 313 311 312 313 312 309 306 305 306 304 299 295 298 288
295 293 291 289 288 293 295 296 301 308 314 317 316 316 318 321 323 324 327 325 321 322 326 319 310 311 317 316 318 318 321 320 319 317 314 310 310 311 306 306 312 312 303
293 291 288 287 290 293 292 299 305 312 316 318 315 312 312 313 320 318 316 317 319 320 314 310 319 323 326 328 328 328 327 326 326 324 322 319 317 316 309 312 317 315 303
291 288 287 290 292 291 296 301 306 311 313 316 309 307 307 306 311 315 314 317 319 318 316 321 324 329 331 333 332 331 330 330 330 328 326 325 323 320 316 315 319 316 305
288 289 291 292 292 298 304 308 311 313 315 317 315 312 313 313 314 316 320 320 315 323 325 324 327 331 331 333 333 331 330 331 331 330 330 328 327 323 320 315 319 318 308
292 293 293 293 297 303 308 311 313 314 316 320 324 318 317 317 317 322 324 324 324 328 334 332 332 331 331 332 333 332 331 332 333 332 331 332 331 328 322 314 322 318 308
292 292 295 299 306 310 312 313 313 314 316 319 322 322 318 319 320 327 332 330 333 335 336 334 335 332 331 332 333 333 332 333 334 334 333 333 333 330 324 320 321 318 304
295 296 300 306 310 313 314 314 315 316 318 321 323 326 327 324 328 329 332 334 337 338 337 335 335 332 331 332 334 333 332 333 334 334 334 335 335 331 326 320 320 315 305
303 307 311 314 316 317 318 318 319 321 321 321 323 326 331 325 328 326 329 333 337 339 336 335 336 334 332 332 333 333 332 333 334 333 332 331 332 330 327 319 319 314 302
312 314 316 318 319 321 322 323 323 323 323 323 325 326 327 327 329 330 331 333 336 339 337 334 336 336 333 333 333 333 332 332 334 333 330 329 328 327 326 319 312 307 302
318 318 321 323 324 326 326 326 327 327 325 325 326 327 329 331 333 334 334 334 336 338 339 336 335 336 334 333 333 334 333 334 333 331 328 326 322 320 320 314 302 294 298
321 322 326 329 330 330 329 330 330 329 327 327 327 327 330 332 333 335 336 336 337 339 340 338 338 336 333 335 336 337 335 333 332 330 324 317 314 314 315 306 294 292 292
326 330 334 334 334 332 330 331 333 332 331 329 328 329 331 333 334 336 338 338 338 340 341 341 339 337 336 338 339 341 340 337 332 325 320 315 307 305 305 292 277 285 281
334 336 336 336 334 334 334 333 334 334 333 332 332 333 334 335 334 337 341 340 340 341 341 341 341 339 338 341 344 345 343 339 334 327 318 309 301 297 293 273 274 278 256